Time,TemperatureF,DewpointF,PressureIn,WindDirection,WindDirectionDegrees,WindSpeedMPH,WindSpeedGustMPH,Humidity,HourlyPrecipIn,Conditions,Clouds,dailyrainin,SoftwareType,DateUTC
2013-10-02 00:06:00,53.7,37.0,29.53,SW,221,8.0,11.0,53,0.00,,,0.00,weatherlink.com 1.10,2013-10-02 07:06:00,
2013-10-02 00:21:00,54.5,36.0,29.52,SW,224,5.0,14.0,51,0.00,,,0.00,weatherlink.com 1.10,2013-10-02 07:21:00,
2013-10-02 00:36:00,54.3,37.0,29.52,SW,215,7.0,12.0,52,0.00,,,0.00,weatherlink.com 1.10,2013-10-02 07:36:00,
2013-10-02 00:51:00,54.2,36.0,29.53,West,267,4.0,13.0,51,0.00,,,0.00,weatherlink.com 1.10,2013-10-02 07:51:00,
2013-10-02 01:07:00,54.1,36.0,29.53,NNE,23,6.0,11.0,51,0.00,,,0.00,weatherlink.com 1.10,2013-10-02 08:07:00,
2013-10-02 01:22:00,53.2,36.0,29.53,NNW,337,2.0,6.0,53,0.00,,,0.00,weatherlink.com 1.10,2013-10-02 08:22:00,
2013-10-02 01:37:00,53.7,36.0,29.53,SW,229,3.0,8.0,52,0.00,,,0.00,weatherlink.com 1.10,2013-10-02 08:37:00,
2013-10-02 01:52:00,53.7,36.0,29.53,SE,131,1.0,7.0,51,0.00,,,0.00,weatherlink.com 1.10,2013-10-02 08:52:00,
2013-10-02 02:07:00,53.7,36.0,29.53,West,266,5.0,10.0,51,0.00,,,0.00,weatherlink.com 1.10,2013-10-02 09:07:00,
2013-10-02 02:22:00,52.6,36.0,29.52,SSW,210,5.0,6.0,54,0.00,,,0.00,weatherlink.com 1.10,2013-10-02 09:22:00,
2013-10-02 02:37:00,52.4,36.0,29.52,South,173,1.0,9.0,54,0.00,,,0.00,weatherlink.com 1.10,2013-10-02 09:37:00,
2013-10-02 02:52:00,52.2,36.0,29.52,West,271,1.0,5.0,54,0.00,,,0.00,weatherlink.com 1.10,2013-10-02 09:52:00,
2013-10-02 03:07:00,51.6,35.0,29.52,WSW,242,3.0,6.0,54,0.00,,,0.00,weatherlink.com 1.10,2013-10-02 10:07:00,
2013-10-02 03:22:00,51.8,35.0,29.52,SW,229,4.0,8.0,54,0.00,,,0.00,weatherlink.com 1.10,2013-10-02 10:22:00,
2013-10-02 03:37:00,52.1,35.0,29.52,WNW,290,8.0,10.0,52,0.00,,,0.00,weatherlink.com 1.10,2013-10-02 10:37:00,
2013-10-02 03:52:00,52.6,35.0,29.52,West,262,4.0,12.0,51,0.00,,,0.00,weatherlink.com 1.10,2013-10-02 10:52:00,
2013-10-02 04:07:00,52.3,34.0,29.52,SW,232,5.0,9.0,51,0.00,,,0.00,weatherlink.com 1.10,2013-10-02 11:07:00,
2013-10-02 04:22:00,52.1,34.0,29.52,SW,233,7.0,9.0,51,0.00,,,0.00,weatherlink.com 1.10,2013-10-02 11:22:00,
2013-10-02 04:37:00,52.2,34.0,29.52,South,187,3.0,10.0,51,0.00,,,0.00,weatherlink.com 1.10,2013-10-02 11:37:00,
2013-10-02 04:52:00,51.3,35.0,29.53,West,267,4.0,6.0,54,0.00,,,0.00,weatherlink.com 1.10,2013-10-02 11:52:00,
2013-10-02 05:07:00,51.3,34.0,29.53,SW,225,1.0,4.0,53,0.00,,,0.00,weatherlink.com 1.10,2013-10-02 12:07:00,
2013-10-02 05:22:00,51.0,34.0,29.53,SW,224,2.0,4.0,53,0.00,,,0.00,weatherlink.com 1.10,2013-10-02 12:22:00,
2013-10-02 05:37:00,51.3,34.0,29.53,SSW,204,1.0,1.0,53,0.00,,,0.00,weatherlink.com 1.10,2013-10-02 12:37:00,
2013-10-02 05:52:00,51.2,35.0,29.53,WSW,239,0.0,1.0,54,0.00,,,0.00,weatherlink.com 1.10,2013-10-02 12:52:00,
2013-10-02 06:07:00,51.2,35.0,29.54,SSW,200,2.0,2.0,55,0.00,,,0.00,weatherlink.com 1.10,2013-10-02 13:07:00,
2013-10-02 06:22:00,51.2,35.0,29.54,WSW,253,2.0,4.0,55,0.00,,,0.00,weatherlink.com 1.10,2013-10-02 13:22:00,
2013-10-02 06:37:00,51.1,34.0,29.54,SSW,212,2.0,6.0,53,0.00,,,0.00,weatherlink.com 1.10,2013-10-02 13:37:00,
2013-10-02 06:52:00,51.8,36.0,29.54,SSW,198,2.0,6.0,55,0.00,,,0.00,weatherlink.com 1.10,2013-10-02 13:52:00,
2013-10-02 07:07:00,51.9,35.0,29.55,SSE,164,2.0,3.0,53,0.00,,,0.00,weatherlink.com 1.10,2013-10-02 14:07:00,
2013-10-02 07:22:00,52.4,36.0,29.55,South,188,1.0,5.0,53,0.00,,,0.00,weatherlink.com 1.10,2013-10-02 14:22:00,
2013-10-02 07:37:00,52.6,36.0,29.55,South,183,5.0,6.0,54,0.00,,,0.00,weatherlink.com 1.10,2013-10-02 14:37:00,
2013-10-02 07:52:00,53.0,37.0,29.56,SSE,153,0.0,6.0,55,0.00,,,0.00,weatherlink.com 1.10,2013-10-02 14:52:00,
2013-10-02 08:07:00,53.6,37.0,29.56,SSE,150,0.0,7.0,54,0.00,,,0.00,weatherlink.com 1.10,2013-10-02 15:07:00,
2013-10-02 08:22:00,55.1,38.0,29.56,NE,53,3.0,4.0,53,0.00,,,0.00,weatherlink.com 1.10,2013-10-02 15:22:00,
2013-10-02 08:37:00,55.1,39.0,29.57,ENE,68,1.0,2.0,54,0.00,,,0.00,weatherlink.com 1.10,2013-10-02 15:37:00,
2013-10-02 08:52:00,55.6,38.0,29.57,ENE,57,3.0,4.0,52,0.00,,,0.00,weatherlink.com 1.10,2013-10-02 15:52:00,
2013-10-02 09:07:00,55.8,38.0,29.57,ENE,60,2.0,5.0,52,0.00,,,0.00,weatherlink.com 1.10,2013-10-02 16:07:00,
2013-10-02 09:22:00,56.0,38.0,29.57,ESE,110,3.0,5.0,51,0.00,,,0.00,weatherlink.com 1.10,2013-10-02 16:22:00,
2013-10-02 09:37:00,56.5,38.0,29.57,ENE,67,2.0,6.0,51,0.00,,,0.00,weatherlink.com 1.10,2013-10-02 16:37:00,
2013-10-02 09:52:00,57.4,39.0,29.57,ENE,68,2.0,5.0,50,0.00,,,0.00,weatherlink.com 1.10,2013-10-02 16:52:00,
2013-10-02 09:58:00,57.5,39.0,29.57,NW,322,2.0,4.0,51,0.00,,,0.00,weatherlink.com 1.10,2013-10-02 16:58:00,
2013-10-02 10:12:00,58.0,38.0,29.57,NNW,345,1.0,4.0,47,0.00,,,0.00,weatherlink.com 1.10,2013-10-02 17:12:00,
2013-10-02 10:27:00,59.0,39.0,29.57,NE,52,2.0,6.0,47,0.00,,,0.00,weatherlink.com 1.10,2013-10-02 17:27:00,
2013-10-02 10:42:00,60.1,39.0,29.57,East,99,0.0,5.0,45,0.00,,,0.00,weatherlink.com 1.10,2013-10-02 17:42:00,
2013-10-02 10:57:00,60.7,40.0,29.56,ENE,64,4.0,4.0,46,0.00,,,0.00,weatherlink.com 1.10,2013-10-02 17:57:00,
2013-10-02 11:12:00,61.6,39.0,29.56,WSW,242,1.0,3.0,44,0.00,,,0.00,weatherlink.com 1.10,2013-10-02 18:12:00,
2013-10-02 11:27:00,62.4,40.0,29.55,ENE,59,2.0,4.0,44,0.00,,,0.00,weatherlink.com 1.10,2013-10-02 18:27:00,
2013-10-02 11:42:00,63.2,40.0,29.55,NNE,13,0.0,2.0,43,0.00,,,0.00,weatherlink.com 1.10,2013-10-02 18:42:00,
2013-10-02 11:57:00,62.9,40.0,29.55,SSW,207,1.0,4.0,43,0.00,,,0.00,weatherlink.com 1.10,2013-10-02 18:57:00,
2013-10-02 12:12:00,63.7,40.0,29.54,WNW,290,3.0,4.0,42,0.00,,,0.00,weatherlink.com 1.10,2013-10-02 19:12:00,
2013-10-02 12:27:00,64.4,41.0,29.54,NE,56,2.0,5.0,42,0.00,,,0.00,weatherlink.com 1.10,2013-10-02 19:27:00,
2013-10-02 12:42:00,65.1,41.0,29.53,ENE,65,2.0,5.0,41,0.00,,,0.00,weatherlink.com 1.10,2013-10-02 19:42:00,
2013-10-02 12:57:00,64.8,40.0,29.52,NE,37,3.0,4.0,40,0.00,,,0.00,weatherlink.com 1.10,2013-10-02 19:57:00,
2013-10-02 13:12:00,65.0,41.0,29.52,NNW,346,2.0,4.0,41,0.00,,,0.00,weatherlink.com 1.10,2013-10-02 20:12:00,
2013-10-02 13:27:00,66.3,41.0,29.51,SW,236,1.0,7.0,40,0.00,,,0.00,weatherlink.com 1.10,2013-10-02 20:27:00,
2013-10-02 13:42:00,66.1,39.0,29.50,NE,36,0.0,4.0,37,0.00,,,0.00,weatherlink.com 1.10,2013-10-02 20:42:00,